Regional Weather Roundup
Issued by NWS

Home | Current Version | Previous Version | Graphics & Text | Print | Product List | Glossary On
Versions: 1 2 3 4 5 6 7 8 9 10 11 12 13 14 15 16 17 18 19 20 21 22 23 24 25 26 27 28 29 30 31 32 33 34 35 36 37 38 39 40 41 42 43 44 45 46 47 48 49 50
000
ASUS45 KSLC 101410
RWRUT

UTAH REGIONAL WEATHER ROUNDUP
NATIONAL WEATHER SERVICE SALT LAKE CITY UT
800 AM MDT THU JUL 10 2014

UTZ001>011-023>025-101500-

NORTHERN UTAH

CITY           SKY/WX    TMP DP  RH WIND       PRES   REMARKS
HILL AFB       PTSUNNY   73  55  53 S10       30.04R
LOGAN          CLOUDY    71  58  63 CALM      30.02R
OGDEN          PTSUNNY   73  54  51 SE6       30.01R
PROVO AIRPORT  PTSUNNY   73  54  49 CALM      30.06R
SALT LAKE CITY CLOUDY    73  60  63 SE7       30.00R
VERNAL         PTSUNNY   70  52  52 MISG      30.12R
WENDOVER       PTSUNNY   81  46  30 N5        30.01R
HEBER CITY     CLOUDY    64  54  68 CALM      30.12S
WEST JORDAN    PTSUNNY   73  64  73 SW5       30.04S

$$

UTZ012>022-026-027-101500-

SOUTHERN UTAH

CITY           SKY/WX    TMP DP  RH WIND       PRES   REMARKS
BRYCE CANYON   MOSUNNY   62  50  64 CALM      30.30R
CEDAR CITY     CLOUDY    70  52  52 CALM      30.14R
MILFORD        PTSUNNY   74  52  46 S15       30.08R
MOAB/CYNLANDS  SUNNY     75  57  53 CALM      30.08R
PRICE          MOSUNNY   69  55  60 CALM      30.17R
ST GEORGE      NOT AVBL

$$

REGIONAL REPORTS     COLORADO/ARIZONA

CITY           SKY/WX    TMP DP  RH WIND       PRES   REMARKS
CRAIG, CO      SUNNY     55  48  77 CALM      30.21R
GRAND JUNCTION SUNNY     75  47  36 SE9       30.12R
RIFLE          MOSUNNY   65  44  46 E3        30.19R
MONTROSE       MOSUNNY   71  47  42 SE9       30.21S
CORTEZ         SUNNY     67  51  56 N6        30.20S
PAGE, AZ       SUNNY     79  51  37 VRB3      30.07R
GRAND CANYON   PTSUNNY   64  55  72 CALM      30.26R
KINGMAN        MOSUNNY   76  62  62 SE13      30.03R
FLAGSTAFF      SUNNY     63  53  70 CALM      30.29R

$$

REGIONAL REPORTS    NEVADA/IDAHO/WYOMING

CITY           SKY/WX    TMP DP  RH WIND       PRES   REMARKS
LAS VEGAS, NV  CLOUDY    85  62  46 S7        29.86R
ELY            MOSUNNY   60  52  74 S13       30.18R
ELKO           MOSUNNY   63  57  81 E6        30.10R
POCATELLO, ID  PTSUNNY   75  47  36 SW8       30.03R
BURLEY         PTSUNNY   67  55  65 SW7       29.99R
EVANSTON, WY   PTSUNNY   63  49  60 S8        30.21R
ROCK SPRINGS   MOSUNNY   70  45  40 SW10      30.17R

$$



USA.gov is the U.S. government's official web portal to all federal, state and local government web resources and services.